Regional Weather Roundup
Issued by NWS

Home | Current Version | Previous Version | Text Only | Print | Product List | Glossary On
Versions: 1 2 3 4 5 6 7 8 9 10 11 12 13 14 15 16 17 18 19 20 21 22 23 24 25 26 27 28 29 30 31 32 33 34 35 36 37 38 39 40 41 42 43 44 45 46 47 48 49 50
000
ASUS44 KOUN 280010
RWROK

WEATHER ROUNDUP FOR OKLAHOMA
NATIONAL WEATHER SERVICE NORMAN OK
700 PM CDT WED MAY 27 2015

NOTE: "FAIR" INDICATES FEW OR NO CLOUDS BELOW 12,000 FEET WITH NO
      SIGNIFICANT WEATHER AND/OR OBSTRUCTIONS TO VISIBILITY.

OKZ001>007-009>012-014-015-017-280100-
NORTHWEST OKLAHOMA AND THE PANHANDLE

CITY           SKY/WX    TMP DP  RH WIND       PRES   REMARKS
GAGE           LGT RAIN  75  68  78 SE16      29.97S
6HR MIN TEMP:  74; 6HR MAX TEMP:  84; 6HR PCP: TRACE;

GUYMON         PTSUNNY   72  54  53 SE14G26   29.94S
ENID/WOODRING  CLOUDY    77  68  73 S12       29.98F
$$

OKZ016-021>023-033>039-044-045-280100-
SOUTHWEST OKLAHOMA

CITY           SKY/WX    TMP DP  RH WIND       PRES   REMARKS
LAWTON/REGL    PTSUNNY   76  64  66 SE16G22   30.00S
6HR MIN TEMP:  76; 6HR MAX TEMP:  83;

LAWTON/FT SILL PTSUNNY   76  66  71 SE17G25   29.99F
FREDERICK      CLOUDY    74  66  76 SE16      29.96R
CLINTON        CLOUDY    78  68  71 SE17      29.98F
HOBART         CLOUDY    79  69  71 SE17      29.98F
ALTUS AFB      CLOUDY    80  72  74 E18       29.96F
$$

OKZ018>020-024>031-280100-
CENTRAL OKLAHOMA

CITY           SKY/WX    TMP DP  RH WIND       PRES   REMARKS
OKLAHOMA CITY  PTSUNNY   76  65  68 S10       30.01S
6HR MIN TEMP:  70; 6HR MAX TEMP:  81; 6HR PCP:  0.01;

OKC/WILEY POST PTSUNNY   76  66  71 S12       30.01S
OKC/TINKER AFB MOSUNNY   76  65  68 S12       30.01R
STILLWATER     CLOUDY    77  66  68 S9        29.99F
GUTHRIE        CLOUDY    77  65  66 S7        29.99F
$$

OKZ008-013-054>072-280100-
NORTHEAST OKLAHOMA

CITY           SKY/WX    TMP DP  RH WIND       PRES   REMARKS
TULSA          PTSUNNY   82  66  58 S12       29.99S
6HR MIN TEMP:  82; 6HR MAX TEMP:  87;

TULSA/JONES    SUNNY     82  65  56 S7        30.00F VSB 1
PONCA CITY     CLOUDY    81  68  64 VRB7      29.98F
BARTLESVILLE   MOSUNNY   81  68  64 SE6       30.02S
MUSKOGEE       MOSUNNY   80  61  52 S6        30.02F
$$

OKZ032-040>043-046>053-073>077-280100-
SOUTH CENTRAL/SOUTHEAST OKLAHOMA

CITY           SKY/WX    TMP DP  RH WIND       PRES   REMARKS
ARDMORE/DWNTWN CLOUDY    73  64  73 CALM      30.02S
MCALESTER      CLOUDY    78  69  73 CALM      30.03S
$$



USA.gov is the U.S. government's official web portal to all federal, state and local government web resources and services.